Location: 476 Grange Obs.
(45.1420°N, 7.1420°E)
Time: 02:16:54
(UTC+01:00)

ISS - Visible Passes

Search period start: 19 December 2018 00:00
Search period end: 29 December 2018 00:00
Orbit: 401 x 408 km, 51.6° (Epoch: 19 December)

Date Brightness Start Highest point End Pass type
(mag) Time Alt. Az. Time Alt. Az. Time Alt. Az.
22 Dec -0.5 07:04:00 10° SSE 07:05:45 14° SE 07:07:31 10° E visible
24 Dec -1.7 06:54:36 10° SSW 06:57:31 29° SE 07:00:25 10° ENE visible
25 Dec -0.9 06:03:15 10° S 06:05:27 17° SE 06:07:40 10° E visible
26 Dec -3.4 06:46:05 10° SW 06:49:21 64° SSE 06:52:36 10° ENE visible
27 Dec -2.5 05:56:44 34° SSE 05:57:09 36° SE 06:00:12 10° ENE visible
27 Dec -3.3 07:30:27 10° W 07:33:36 43° NNW 07:36:47 10° NE visible
28 Dec -0.3 05:07:12 12° E 05:07:12 12° E 05:07:34 10° E visible
28 Dec -3.9 06:39:54 31° W 06:41:15 64° NNW 06:44:32 10° ENE visible
